Location: Newark
(34.9500°N, 139.9667°E)
Time: 11:38:13
(UTC+00:00)

Transit 4A - Pass Details

Date: 09 December 2019
Orbit: 871 x 973 km, 66.8° (Epoch: 20 January)

Event Time Altitude Azimuth Distance (km) Brightness Sun altitude
Rises 07:46:59 0° 212° (SSW) 3,623 12.1 -4.2°
Reaches altitude 10° 07:49:34 10° 215° (SW) 2,668 11.4 -4.7°
Maximum altitude 07:55:45 69° 298° (WNW) 998 8.3 -5.9°
Drops below altitude 10° 08:01:49 10° 21° (NNE) 2,612 9.8 -7.0°
Sets 08:04:20 0° 24° (NNE) 3,542 10.5 -7.5°
